Location: Gwatt
(46.7204°N, 7.6223°E)
Time: 00:03:37
(UTC+00:00)

Transit 2A - Pass Details

Date: 29 January 2021
Orbit: 601 x 958 km, 66.7° (Epoch: 07 March)

Event Time Altitude Azimuth Distance (km) Brightness Sun altitude
Rises 08:18:24 0° 332° (NNW) 3,093 8.5 10.8°
Reaches altitude 10° 08:22:38 10° 6° (N) 2,085 8.0 11.3°
Maximum altitude 08:24:05 11° 25° (NNE) 1,975 8.0 11.5°
Drops below altitude 10° 08:25:30 10° 43° (NE) 2,034 8.3 11.7°
Sets 08:29:27 0° 79° (E) 2,885 9.5 12.2°
